#timestamp,LO_Frequency,Hit,StdDev 
1632456015.1,286046999.4,N
1632456016.0,286046999.4,N
1632456035.8,286047000.7,N
1632456055.7,286046999.8,N
1632456075.5,286047004.4,N
1632456095.3,286047003.5,N
1632456115.2,286047005.5,N
1632456135.0,286047005.2,N
1632456135.9,286047005.2,N
1632456155.8,286047007.1,N
1632456175.6,286047007.0,N
1632456195.4,286047007.3,N
1632456215.3,286047006.1,N
1632456235.1,286047005.8,N
1632456255.8,286047005.7,N
1632456275.7,286047005.3,N
1632456295.5,286047004.6,N
1632456315.4,286047004.5,N
1632456335.2,286047005.3,N
1632456355.0,286047005.4,N
1632456355.9,286047005.4,N
1632456375.8,286047005.7,N
1632456395.6,286047003.3,N
1632456415.5,286047002.4,N
1632456435.3,286047002.0,N
1632456455.1,286047001.5,N
1632456475.9,286047000.1,N
1632456495.7,286047002.5,N
1632456515.6,286047001.8,N
1632456535.4,286047001.4,N
1632456555.2,286047003.5,N
1632456575.1,286047003.3,N
1632456576.0,286047003.3,N
1632456595.8,286047001.3,N
1632456615.7,286047004.0,N
1632456635.5,286047003.2,N
1632456655.3,286047003.4,N
1632456675.2,286047005.3,N
1632456695.0,286047005.6,N
1632456695.9,286047005.6,N
1632456715.8,286047006.0,Y
1632456735.6,286046998.5,P
1632456755.4,286046999.5,N
1632456775.3,286046996.9,N
1632456795.1,286046996.9,N
1632456815.8,286046999.0,N
1632456835.7,286046997.8,N
1632456855.5,286046996.6,N
1632456875.4,286046997.0,N
1632456895.2,286046999.1,N
1632456915.0,286046998.5,N
1632456915.9,286046998.5,N
1632456935.8,286046998.2,N
1632456955.6,286046995.4,N
1632456975.4,286046995.9,N
1632456995.3,286046994.1,Y
1632457015.1,286046995.9,P
1632457035.9,286046993.6,P
1632457055.7,286046993.9,P
1632457075.5,286046997.6,N
1632457095.4,286046996.9,N
1632457115.2,286046997.3,N
1632457135.1,286046997.5,N
1632457136.0,286046997.5,N
1632457155.8,286046995.5,N
1632457175.6,286046997.5,N
1632457195.5,286046996.8,N
1632457215.3,286046997.1,N
1632457235.1,286046999.6,N
1632457255.9,286046998.6,N
1632457275.7,286046998.6,N
1632457295.6,286047001.1,N
1632457315.4,286047001.0,N
1632457335.2,286046998.9,N
1632457355.1,286046998.5,N
1632457356.0,286046998.5,N
1632457375.8,286046998.5,N
1632457395.7,286047001.1,N
1632457415.5,286047001.0,N
1632457435.3,286047000.3,N
1632457455.2,286047000.8,N
1632457475.9,286046999.0,N
1632457495.7,286046996.5,N
1632457515.6,286046999.5,N
1632457535.4,286047000.7,N
1632457555.3,286046998.5,N
1632457575.1,286046999.4,N
1632457576.0,286046999.4,N
1632457595.8,286046996.5,N
1632457615.7,286046999.6,N
1632457635.5,286046998.8,N
1632457655.3,286046998.3,N
1632457675.2,286047001.1,N
1632457695.3,286047000.5,N
1632457715.1,286046998.5,N
1632457716.0,286046998.5,N
1632457735.8,286047001.2,N
1632457755.7,286047001.0,N
1632457775.5,286046998.5,N
1632457795.4,286046998.7,N
1632457815.2,286046998.7,N
1632457835.0,286047001.2,N
1632457835.9,286047001.2,N
1632457855.8,286047001.2,N
1632457875.6,286046998.8,N
1632457895.4,286046998.9,N
1632457915.3,286046998.8,N
1632457935.1,286046996.9,N
1632457955.9,286046996.7,N
1632457975.7,286046999.1,N
1632457995.5,286046998.5,N
1632458015.4,286046998.5,N
1632458035.2,286047000.7,N
1632458055.0,286046998.2,N
1632458055.9,286046998.2,N
1632458075.8,286046999.0,N
1632458095.6,286046999.5,N
1632458115.5,286046996.6,N
1632458135.3,286046997.5,N
1632458155.1,286046997.8,N
1632458175.9,286046995.2,Y
1632458195.7,286046994.9,P
1632458215.6,286046996.9,N
1632458235.4,286046999.3,N
1632458255.2,286046999.3,N
1632458275.1,286046999.5,N
1632458276.0,286046999.5,N
1632458295.8,286046996.5,N
1632458315.6,286046999.4,N
1632458335.5,286046997.4,N
1632458355.3,286046997.4,N
1632458375.2,286046996.6,N
1632458395.9,286046999.4,N
1632458415.7,286046999.0,N
1632458435.6,286046999.2,N
1632458455.4,286046999.0,N
1632458475.3,286046996.6,N
1632458495.1,286046997.8,N
1632458496.0,286046997.8,N
1632458515.8,286046997.7,N
1632458535.7,286046997.2,N
1632458555.5,286046996.8,N
1632458575.3,286046996.6,N
1632458595.2,286046996.7,N
1632458615.0,286046999.2,N
1632458615.9,286046999.2,N
1632458635.8,286046997.0,N
1632458655.6,286046998.8,N
1632458675.4,286046999.4,N
1632458695.3,286046998.3,N
1632458715.1,286046999.3,N
1632458735.8,286046996.8,N
1632458755.7,286046996.9,N
1632458775.5,286046996.9,N
1632458795.4,286046999.5,N
1632458815.2,286046996.5,Y
1632458835.1,286047002.6,P
1632458836.0,286047002.6,N
1632458855.8,286047000.2,N
1632458875.6,286047001.2,N
1632458895.5,286046998.7,N
1632458915.3,286046998.9,N
1632458935.2,286046999.0,N
1632458955.9,286046998.2,N
1632458975.7,286046998.4,N
1632458995.6,286047001.0,N
1632459015.4,286046998.8,N
1632459035.2,286046999.5,N
1632459055.1,286046998.4,N
1632459056.0,286046998.4,N
1632459075.8,286047000.9,N
1632459095.7,286047000.3,N
1632459115.5,286047000.2,N
1632459135.4,286047000.0,N
1632459155.2,286046998.7,N
1632459175.0,286046999.4,N
1632459175.9,286046999.4,N
1632459195.8,286046999.3,N
1632459215.6,286046999.3,N
1632459235.4,286046999.6,N
1632459255.3,286047000.9,N
1632459275.1,286047000.2,N
1632459295.9,286047001.1,N
1632459315.7,286046998.4,N
1632459335.5,286047000.7,N
1632459355.4,286047001.2,N
1632459375.2,286046999.4,N
1632459395.0,286046998.7,N
1632459395.9,286046998.7,N
1632459415.8,286046999.2,N
1632459435.6,286046999.2,N
1632459455.5,286046998.9,N
1632459475.3,286046998.1,N
1632459495.1,286046998.2,N
1632459515.9,286046998.7,N
1632459535.7,286046998.4,N
1632459555.6,286046997.6,N
1632459575.4,286046997.8,N
1632459595.2,286046997.1,N
